"Pseudo-MPEC" for C0GNT15

Created 2023 Mar 22 16:22:04 UT using Find_Orb

Click here for an explanation of pseudo-MPECs

 
 Astrometry: 
     C0GNT15* C2023 03 14vW.R'^NhaBFaAstrometryKFk2k;o7O@+-!redacted;ZUN+q$bZV00
     C0GNT15  C2023 03 14Vj^X%ZXf`%2rJMBbVbGclick=JxsR*DVl$hereg6B%H`'hF`Tr0(V00
     C0GNT15  C2023 03 14:L8Wt0tx/GPml`9JM*mforSRomY79slexplanation1*N0@7^Qe\V00

Station data:
(V00) Kitt Peak-Bok  (N31.963125 W111.600190)  US/Arizona.  Observers T. A.
   Pruyne, B. M. Africano, E. J. Christensen, G. A. Farneth, D. C. Fuls, A.
   R. Gibbs, A. D. Grauer, H. Gröller, J. A. Johnson, R. A. Kowalski, S. M.
   Larson, G. J. Leonard, D. Rankin, R. L. Seaman, F. C. Shelly, K. W.
   Wierzchoś. 2.25-m reflector + CCD.

Orbital elements:  C0GNT15
   Perihelion 2023 Mar 4.90995 +/- 53.2 TT = 21:50:20 (JD 2460008.40995)
Epoch 2023 Mar 14.0 TT = JDT 2460017.5   Earth MOID: 0.0167      AutoNEOCP
M   9.45969046 +/- 46               (J2000 ecliptic)
n   1.04066470 +/- 1.05             Peri.   35.43993 +/- 60
a   0.96441102 +/- 0.65             Node   123.84410 +/- 36
e   0.0288543 +/- 0.26              Incl.    0.70995 +/- 56
P   0.95/345.93d           H 19.29  G  0.15   U 12.8  SR
q 0.93658353 +/- 0.73    Q 0.99223851 +/- 520
From 3 observations 2023 Mar. 14 (21.9 min); mean residual 0".15
Residuals in arcseconds: 
230314 V00  .19-  .00     230314 V00  .29+  .02+    230314 V00  .10-  .01-    

Ephemerides (geocentric):
Date (UTC) HH   RA             Dec           delta  r     elong  mag " sig PA
---- --------  ------------   ------------  ------ ------ -----  --- --------
2023 03 22 16  02 08 46.782   +20 53 49.93  .07360 .93811  36.3 20?? 2082 146
2023 03 22 17  02 08 44.797   +20 54 11.59  .07356 .93811  36.3 20?? 2103 146
2023 03 22 18  02 08 42.800   +20 54 33.20  .07352 .93812  36.3 20?? 2124 146
2023 03 22 19  02 08 40.790   +20 54 54.74  .07348 .93813  36.2 20?? 2145 146
2023 03 22 20  02 08 38.767   +20 55 16.22  .07344 .93814  36.2 20?? 2167 146
2023 03 22 21  02 08 36.731   +20 55 37.64  .07340 .93814  36.1 20?? 2188 146
2023 03 22 22  02 08 34.683   +20 55 59.00  .07336 .93815  36.1 20?? 2210 146
2023 03 22 23  02 08 32.622   +20 56 20.29  .07332 .93816  36.0 20?? 2232 147
2023 03 23 00  02 08 30.549   +20 56 41.53  .07328 .93816  36.0 20?? 2254 147
2023 03 23 01  02 08 28.463   +20 57 02.70  .07324 .93817  35.9 20?? 2276 147
2023 03 23 02  02 08 26.364   +20 57 23.81  .07320 .93818  35.9 20?? 2298 147
2023 03 23 03  02 08 24.252   +20 57 44.86  .07316 .93819  35.9 20?? 2320 147
2023 03 23 04  02 08 22.127   +20 58 05.84  .07312 .93819  35.8 20?? 2343 147
2023 03 23 05  02 08 19.990   +20 58 26.76  .07308 .93820  35.8 20?? 2365 147
2023 03 23 06  02 08 17.840   +20 58 47.62  .07304 .93821  35.7 20?? 2388 147
2023 03 23 07  02 08 15.677   +20 59 08.42  .07300 .93821  35.7 20?? 2411 147
2023 03 23 08  02 08 13.502   +20 59 29.15  .07297 .93822  35.6 20?? 2434 147
2023 03 23 09  02 08 11.313   +20 59 49.82  .07293 .93823  35.6 20?? 2457 147
2023 03 23 10  02 08 09.112   +21 00 10.42  .07289 .93824  35.5 20?? 2480 147
2023 03 23 11  02 08 06.898   +21 00 30.97  .07285 .93824  35.5 20?? 2503 147
2023 03 23 12  02 08 04.671   +21 00 51.44  .07281 .93825  35.5 20?? 2526 147
2023 03 23 13  02 08 02.431   +21 01 11.86  .07277 .93826  35.4 20?? 2550 147
2023 03 23 14  02 08 00.178   +21 01 32.21  .07273 .93827  35.4 20?? 2574 147
2023 03 23 15  02 07 57.913   +21 01 52.49  .07269 .93827  35.3 20?? 2597 147
2023 03 23 16  02 07 55.634   +21 02 12.71  .07265 .93828  35.3 20?? 2621 147
2023 03 23 17  02 07 53.343   +21 02 32.87  .07261 .93829  35.2 20?? 2645 147
2023 03 23 18  02 07 51.039   +21 02 52.96  .07257 .93830  35.2 20?? 2669 147
2023 03 23 19  02 07 48.722   +21 03 12.98  .07253 .93830  35.1 20?? 2694 147
2023 03 23 20  02 07 46.391   +21 03 32.94  .07250 .93831  35.1 20?? 2718 147
2023 03 23 21  02 07 44.048   +21 03 52.84  .07246 .93832  35.1 20?? 2743 147
2023 03 23 22  02 07 41.692   +21 04 12.67  .07242 .93833  35.0 20?? 2767 148
2023 03 23 23  02 07 39.324   +21 04 32.43  .07238 .93833  35.0 20?? 2792 148
2023 03 24 00  02 07 36.942   +21 04 52.13  .07234 .93834  34.9 20?? 2817 148
2023 03 24 01  02 07 34.547   +21 05 11.76  .07230 .93835  34.9 20?? 2842 148
2023 03 24 02  02 07 32.139   +21 05 31.32  .07226 .93836  34.8 20?? 2867 148
2023 03 24 03  02 07 29.718   +21 05 50.82  .07222 .93836  34.8 20?? 2893 148
2023 03 24 04  02 07 27.284   +21 06 10.25  .07219 .93837  34.7 20?? 2918 148
2023 03 24 05  02 07 24.837   +21 06 29.61  .07215 .93838  34.7 20?? 2944 148
2023 03 24 06  02 07 22.377   +21 06 48.91  .07211 .93839  34.6 20?? 2969 148
2023 03 24 07  02 07 19.904   +21 07 08.14  .07207 .93840  34.6 20?? 2995 148
2023 03 24 08  02 07 17.418   +21 07 27.30  .07203 .93840  34.6 20?? 3021 148
2023 03 24 09  02 07 14.919   +21 07 46.39  .07199 .93841  34.5 20?? 3047 148
2023 03 24 10  02 07 12.407   +21 08 05.42  .07195 .93842  34.5 20?? 3074 148
2023 03 24 11  02 07 09.882   +21 08 24.38  .07192 .93843  34.4 20?? 3100 148
2023 03 24 12  02 07 07.344   +21 08 43.27  .07188 .93843  34.4 20?? 3126 148
2023 03 24 13  02 07 04.793   +21 09 02.09  .07184 .93844  34.3 20?? 3153 148
2023 03 24 14  02 07 02.228   +21 09 20.85  .07180 .93845  34.3 20?? 3180 148
2023 03 24 15  02 06 59.651   +21 09 39.53  .07176 .93846  34.2 20?? 3207 148